Home   Weather   Tuba City   Past weeks
Flag for USA

Past Weather in Tuba City, Arizona, USA — Yesterday and Last 2 Weeks

Now
59 °F

Clear.


Feels Like: 59 °F
Forecast: 100 / 65 °F
Wind: No wind

Location: Grand Canyon National Park Airport

Current Time: Jul 16, 2019 at 1:09:40 am

Latest Report: Jul 15, 2019 at 11:54 pm


Visibility: 10 mi

Pressure: 29.89 "Hg (24.99 "Hg at 1510m altitude)

Humidity: 56%

Dew Point: 43 °F

Location of Tuba CityLocation

Past Weather in Tuba City — Graph

°F

Tuba City Temperature Yesterday

Maximum temperature yesterday: 88 °F (at 2:54 pm)
Minimum temperature yesterday: 50 °F (at 4:54 am)
Average temperature yesterday: 71 °F

High & Low Weather Summary for the Past Weeks

 TemperatureHumidityPressure
High91 °F (Jul 11, 2:23 pm)97% (Jul 15, 1:54 am)30.35 "Hg (Jul 15, 1:54 am)
Low37 °F (Jul 9, 3:54 am)7% (Jul 5, 5:54 pm)29.77 "Hg (Jul 3, 8:54 pm)
Average67 °F33%29.98 "Hg
* Reported Jun 30 11:54 pm — Jul 15 11:54 pm, Tuba City. Weather by CustomWeather, © 2019

Note: Actual official high and low records may vary slightly from our data, if they occured in-between our weather recording intervals... More about our weather records

Advertising

Tuba City Weather History for the Previous 24 Hours

Scroll right to see more
 ConditionsComfort  
Time TempWeatherWind HumidityBarometerVisibility
11:54 pm
Mon, Jul 15
59 °FClear.No wind56%29.89 "Hg10 mi
10:54 pm62 °FClear.No wind48%29.89 "Hg10 mi
9:54 pm70 °FClear.3 mph37%29.86 "Hg10 mi
8:54 pm80 °FPassing clouds.7 mph25%29.82 "Hg10 mi
7:54 pm83 °FPartly sunny.No wind24%29.85 "Hg10 mi
6:54 pm87 °FScattered clouds.10 mph21%29.86 "Hg10 mi
5:54 pm88 °FPartly sunny.10 mph20%29.87 "Hg10 mi
4:54 pm87 °FPartly sunny.8 mph21%29.89 "Hg10 mi
3:54 pm88 °FScattered clouds.13 mph21%29.90 "Hg10 mi
2:54 pm88 °FPassing clouds.13 mph21%29.92 "Hg10 mi
1:54 pm87 °FPassing clouds.9 mph20%29.95 "Hg10 mi
12:54 pm86 °FSunny.6 mph20%29.97 "Hg10 mi
11:54 am85 °FSunny.8 mph18%29.97 "Hg10 mi
10:54 am81 °FSunny.9 mph24%29.99 "Hg10 mi
9:54 am78 °FSunny.5 mph33%30.01 "Hg10 mi
8:54 am73 °FSunny.No wind51%30.01 "Hg10 mi
7:54 am61 °FSunny.No wind75%30.01 "Hg10 mi
6:54 am52 °FSunny.3 mph89%30.04 "Hg10 mi
5:54 am51 °FClear.No wind92%30.03 "Hg10 mi
4:54 am50 °FClear.No wind93%30.07 "Hg10 mi
3:54 am53 °FClear.No wind89%30.06 "Hg10 mi
2:54 am55 °FClear.No wind93%30.00 "Hg10 mi
1:54 am54 °FClear.3 mph97%30.01 "Hg10 mi
Weather by CustomWeather, © 2019

See weather overview

LIVE PARTIAL LUNAR ECLIPSE – Watch the eclipse as it happens